Overview Statistics Trail Chart Weather Telemetry Raw packets
 

This is the latest recevied weather packets stored in our database for station/object WA6OOO. If no packets are shown the sender has not sent any weather packets the latest 10 day(s).

<< 1 2 3 4 5 >>
Time Temp. Humidity Pressure Rain* Wind** Luminosity Snow
1788675741 19.44° C 74% 1016.4 hPa 0 mm - 0 W/m² -
1788675437 19.44° C 76% 1016.4 hPa 0 mm - 0 W/m² -
1788675133 18.33° C 78% 1016.3 hPa 0 mm - 0 W/m² -
1788674829 18.89° C 79% 1016.3 hPa 0 mm - 0 W/m² -
1788674526 18.89° C 80% 1016.4 hPa 0 mm - 0 W/m² -
1788674221 18.89° C 79% 1016.5 hPa 0 mm - 0 W/m² -
1788673916 18.89° C 81% 1016.5 hPa 0 mm - 0 W/m² -
1788673611 19.44° C 83% 1016.5 hPa 0 mm - 0 W/m² -
1788673306 18.89° C 81% 1016.3 hPa 0 mm - 0 W/m² -
1788673003 18.89° C 80% 1016.5 hPa 0 mm - 0 W/m² -
1788672697 19.44° C 85% 1016.6 hPa 0 mm - 0 W/m² -
1788672393 19.44° C 86% 1016.7 hPa 0 mm - 0 W/m² -
1788672089 19.44° C 87% 1016.7 hPa 0 mm - 0 W/m² -
1788671786 19.44° C 88% 1016.7 hPa 0 mm - 0 W/m² -
1788671485 19.44° C 88% 1016.6 hPa 0 mm - 0 W/m² -
1788671182 19.44° C 89% 1016.7 hPa 0 mm - 0 W/m² -
1788670882 19.44° C 89% 1016.7 hPa 0 mm - 0 W/m² -
1788670580 19.44° C 89% 1016.7 hPa 0 mm - 0 W/m² -
1788670276 19.44° C 89% 1016.7 hPa 0 mm - 0 W/m² -
1788669972 19.44° C 89% 1016.8 hPa 0 mm - 0 W/m² -
1788669667 19.44° C 89% 1016.6 hPa 0 mm - 0 W/m² -
1788669363 19.44° C 88% 1016.9 hPa 0 mm - 0 W/m² -
1788669058 19.44° C 87% 1016.8 hPa 0 mm - 0 W/m² -
1788668757 19.44° C 88% 1016.8 hPa 0 mm - 0 W/m² -
1788668452 19.44° C 87% 1016.7 hPa 0 mm - 0 W/m² -

* Rain latest hour (hover to see other rain measurements)
** Current wind speed in m/s (hover to see current wind gust speed)